Track YAOGAN 30 now! 10-day predictions YAOGAN 30 is classified as:
1 41473U 16029A 26164.29276051 .00000305 00000-0 51303-4 0 9992 2 41473 97.9019 214.2745 0014172 244.0366 115.9385 14.76263214543090